| time (UTC) | temp F | wind direction | speed knots | gust knots | rain 1hr in | rain 24hr in | rain mn in | humidity % | barometer mb |
| 20260504004503 | 54 | 140 | 0.0 | 2.6 | 0.00 | 0.00 | 0.00 | 71 | 1013.1 |
| 20260504003102 | 55 | 131 | 1.7 | 3.5 | 0.00 | 0.00 | 0.00 | 71 | 1013.3 |
| 20260504001503 | 56 | 126 | 2.6 | 4.3 | 0.00 | 0.00 | 0.00 | 68 | 1013.4 |
| 20260504000120 | 56 | 212 | 0.0 | 1.7 | 0.00 | 0.00 | 0.00 | 66 | 1013.5 |
| 20260503234504 | 57 | 229 | 0.9 | 1.7 | 0.00 | 0.00 | 0.00 | 65 | 1013.4 |
| 20260503233109 | 57 | 257 | 0.9 | 1.7 | 0.00 | 0.00 | 0.00 | 63 | 1013.4 |
| 20260503231503 | 58 | 258 | 0.9 | 2.6 | 0.00 | 0.00 | 0.00 | 60 | 1013.5 |
| 20260503230116 | 58 | 355 | 0.9 | 5.2 | 0.00 | 0.00 | 0.00 | 61 | 1013.6 |
| 20260503224504 | 58 | 331 | 1.7 | 3.5 | 0.00 | 0.00 | 0.00 | 61 | 1013.6 |
| 20260503223101 | 58 | 9 | 0.0 | 3.5 | 0.00 | 0.00 | 0.00 | 60 | 1013.6 |
| 20260503221502 | 58 | 314 | 0.9 | 2.6 | 0.00 | 0.00 | 0.00 | 60 | 1013.4 |
| 20260503214502 | 59 | 330 | 0.9 | 2.6 | 0.00 | 0.00 | 0.00 | 59 | 1013.1 |
| 20260503213104 | 59 | 286 | 0.0 | 2.6 | 0.00 | 0.00 | 0.00 | 59 | 1013.1 |
| 20260503211502 | 59 | 254 | 0.0 | 2.6 | 0.00 | 0.00 | 0.00 | 59 | 1012.9 |
| 20260503204502 | 60 | 309 | 0.9 | 2.6 | 0.00 | 0.00 | 0.00 | 57 | 1012.7 |
| 20260503203115 | 60 | 74 | 0.0 | 3.5 | 0.00 | 0.00 | 0.00 | 57 | 1012.4 |
| 20260503201502 | 61 | 300 | 0.9 | 3.5 | 0.00 | 0.00 | 0.00 | 55 | 1012.3 |
| 20260503200107 | 62 | 332 | 2.6 | 5.2 | 0.00 | 0.00 | 0.00 | 54 | 1012.3 |
| 20260503194502 | 62 | 5 | 1.7 | 7.0 | 0.00 | 0.00 | 0.00 | 54 | 1012.1 |
| 20260503193102 | 62 | 360 | 1.7 | 7.8 | 0.00 | 0.00 | 0.00 | 53 | 1011.9 |
| 20260503191504 | 63 | 360 | 3.5 | 8.7 | 0.00 | 0.00 | 0.00 | 52 | 1011.7 |
| 20260503190110 | 65 | 360 | 3.5 | 7.0 | 0.00 | 0.00 | 0.00 | 49 | 1011.4 |
| 20260503184503 | 67 | 360 | 0.9 | 3.5 | 0.00 | 0.00 | 0.00 | 46 | 1011.1 |
| 20260503183104 | 67 | 342 | 0.9 | 2.6 | 0.00 | 0.00 | 0.00 | 46 | 1011.0 |
| 20260503181503 | 68 | 360 | 0.9 | 3.5 | 0.00 | 0.00 | 0.00 | 46 | 1010.9 |
| 20260503174502 | 69 | 338 | 2.6 | 6.1 | 0.00 | 0.00 | 0.00 | 42 | 1010.7 |
| 20260503173106 | 70 | 302 | 0.9 | 6.1 | 0.00 | 0.00 | 0.00 | 41 | 1010.7 |
| 20260503171503 | 71 | 36 | 2.6 | 7.0 | 0.00 | 0.00 | 0.00 | 39 | 1010.7 |
| 20260503170105 | 71 | 9 | 1.7 | 7.0 | 0.00 | 0.00 | 0.00 | 38 | 1010.7 |
| 20260503100111 | 71 | 355 | 4.3 | 11.3 | 0.00 | 0.00 | 0.00 | 37 | 1012.5 |
| 20260503081603 | 66 | 311 | 1.7 | 3.5 | 0.00 | 0.00 | 0.00 | 43 | 1013.5 |
| 20260503071603 | 58 | 144 | 1.7 | 2.6 | 0.00 | 0.00 | 0.00 | 58 | 1014.0 |
| 20260503054624 | 48 | 360 | 0.9 | 3.5 | 0.00 | 0.00 | 0.00 | 78 | 1014.2 |
| 20260503053005 | 47 | 360 | 2.6 | 3.5 | 0.00 | 0.00 | 0.00 | 79 | 1014.3 |
| 20260503051602 | 47 | 145 | 0.9 | 3.5 | 0.00 | 0.00 | 0.00 | 81 | 1014.4 |
| 20260503050003 | 45 | 155 | 1.7 | 3.5 | 0.00 | 0.00 | 0.00 | 83 | 1014.5 |
| 20260503044604 | 45 | 153 | 0.9 | 2.6 | 0.00 | 0.00 | 0.00 | 84 | 1014.7 |
| 20260503043002 | 45 | 153 | 0.9 | 2.6 | 0.00 | 0.00 | 0.00 | 85 | 1014.7 |
| 20260503041603 | 45 | 144 | 1.7 | 4.3 | 0.00 | 0.00 | 0.00 | 82 | 1014.7 |
| 20260503040002 | 46 | 144 | 0.0 | 4.3 | 0.00 | 0.00 | 0.00 | 84 | 1014.6 |
| 20260503034615 | 46 | 163 | 0.9 | 1.7 | 0.00 | 0.00 | 0.00 | 83 | 1014.8 |
| 20260503033002 | 46 | 163 | 0.9 | 2.6 | 0.00 | 0.00 | 0.00 | 82 | 1014.7 |
| 20260503031603 | 46 | 164 | 0.9 | 1.7 | 0.00 | 0.00 | 0.00 | 81 | 1014.8 |
| 20260503030002 | 47 | 164 | 0.0 | 0.0 | 0.00 | 0.00 | 0.00 | 80 | 1014.9 |
| 20260503024602 | 48 | 164 | 0.9 | 2.6 | 0.00 | 0.00 | 0.00 | 78 | 1015.0 |
| 20260503023003 | 49 | 160 | 0.9 | 2.6 | 0.00 | 0.00 | 0.00 | 78 | 1015.0 |
| 20260503021602 | 49 | 138 | 1.7 | 3.5 | 0.00 | 0.00 | 0.00 | 79 | 1015.1 |
| 20260503020003 | 49 | 151 | 0.9 | 2.6 | 0.00 | 0.00 | 0.00 | 78 | 1015.0 |
| 20260503014608 | 49 | 150 | 1.7 | 3.5 | 0.00 | 0.00 | 0.00 | 77 | 1015.0 |
| 20260503013002 | 50 | 161 | 1.7 | 3.5 | 0.00 | 0.00 | 0.00 | 76 | 1015.0 |
| 20260503011609 | 49 | 139 | 2.6 | 4.3 | 0.00 | 0.00 | 0.00 | 78 | 1015.0 |